TimeEDT,TemperatureF,Dew PointF,Humidity,Sea Level PressureIn,VisibilityMPH,Wind Direction,Wind SpeedMPH,Gust SpeedMPH,PrecipitationIn,Events,Conditions,WindDirDegrees,DateUTC
12:15 AM,40.1,30.4,68,30.21,10.0,Calm,Calm,-,N/A,,Clear,0,2013-03-30 04:15:00
12:55 AM,40.1,31.3,71,30.20,10.0,Calm,Calm,-,N/A,,Clear,0,2013-03-30 04:55:00
1:15 AM,39.6,31.1,72,30.20,10.0,Calm,Calm,-,N/A,,Clear,0,2013-03-30 05:15:00
1:35 AM,39.0,31.5,74,30.20,10.0,Calm,Calm,-,N/A,,Scattered Clouds,0,2013-03-30 05:35:00
1:55 AM,37.4,30.6,76,30.20,10.0,Calm,Calm,-,N/A,,Mostly Cloudy,0,2013-03-30 05:55:00
2:35 AM,35.4,29.8,80,30.20,10.0,Calm,Calm,-,N/A,,Scattered Clouds,0,2013-03-30 06:35:00
2:55 AM,35.4,29.1,78,30.19,10.0,Calm,Calm,-,N/A,,Mostly Cloudy,0,2013-03-30 06:55:00
3:15 AM,33.4,28.4,82,30.20,10.0,Calm,Calm,-,N/A,,Scattered Clouds,0,2013-03-30 07:15:00
3:35 AM,34.0,30.6,87,30.19,10.0,Calm,Calm,-,N/A,,Mostly Cloudy,0,2013-03-30 07:35:00
3:55 AM,35.8,32.0,86,30.20,10.0,Calm,Calm,-,N/A,,Overcast,0,2013-03-30 07:55:00
4:15 AM,36.9,32.0,83,30.20,10.0,Calm,Calm,-,N/A,,Overcast,0,2013-03-30 08:15:00
4:35 AM,37.4,32.9,84,30.19,10.0,Calm,Calm,-,N/A,,Overcast,0,2013-03-30 08:35:00
4:55 AM,34.9,32.0,89,30.19,10.0,Calm,Calm,-,N/A,,Overcast,0,2013-03-30 08:55:00
5:15 AM,34.3,30.9,87,30.19,10.0,Calm,Calm,-,N/A,,Mostly Cloudy,0,2013-03-30 09:15:00
5:35 AM,33.1,30.9,92,30.20,10.0,Calm,Calm,-,N/A,,Mostly Cloudy,0,2013-03-30 09:35:00
5:55 AM,34.0,30.9,89,30.20,10.0,Calm,Calm,-,N/A,,Mostly Cloudy,0,2013-03-30 09:55:00
6:15 AM,32.2,30.2,92,30.21,10.0,Calm,Calm,-,N/A,,Mostly Cloudy,0,2013-03-30 10:15:00
6:35 AM,33.8,31.5,91,30.21,10.0,Calm,Calm,-,N/A,,Overcast,0,2013-03-30 10:35:00
6:55 AM,32.5,30.2,91,30.22,10.0,Calm,Calm,-,N/A,,Mostly Cloudy,0,2013-03-30 10:55:00
7:15 AM,32.0,29.8,92,30.23,10.0,Calm,Calm,-,N/A,,Scattered Clouds,0,2013-03-30 11:15:00
7:35 AM,31.8,29.5,91,30.23,10.0,Calm,Calm,-,N/A,,Scattered Clouds,0,2013-03-30 11:35:00
7:55 AM,32.7,31.3,94,30.24,10.0,Calm,Calm,-,N/A,,Scattered Clouds,0,2013-03-30 11:55:00
8:15 AM,36.1,32.0,85,30.25,10.0,Calm,Calm,-,N/A,,Scattered Clouds,0,2013-03-30 12:15:00
8:35 AM,39.7,32.5,75,30.25,10.0,Calm,Calm,-,N/A,,Scattered Clouds,0,2013-03-30 12:35:00
8:55 AM,42.3,32.7,69,30.25,10.0,Calm,Calm,-,N/A,,Clear,0,2013-03-30 12:55:00
9:15 AM,45.5,32.0,59,30.26,10.0,Calm,Calm,-,N/A,,Clear,0,2013-03-30 13:15:00
9:35 AM,49.8,32.4,51,30.26,10.0,Calm,Calm,-,N/A,,Clear,0,2013-03-30 13:35:00
9:55 AM,51.8,29.5,42,30.25,10.0,NE,3.5,-,N/A,,Clear,50,2013-03-30 13:55:00
10:15 AM,53.4,30.0,41,30.25,10.0,Calm,Calm,-,N/A,,Clear,0,2013-03-30 14:15:00
10:35 AM,54.9,27.9,35,30.24,10.0,Calm,Calm,-,N/A,,Clear,0,2013-03-30 14:35:00
10:55 AM,56.1,27.0,33,30.24,10.0,ENE,3.5,-,N/A,,Clear,70,2013-03-30 14:55:00
11:15 AM,57.0,27.5,32,30.23,10.0,ENE,4.6,-,N/A,,Clear,70,2013-03-30 15:15:00
11:35 AM,57.2,27.1,32,30.22,10.0,Calm,Calm,-,N/A,,Clear,0,2013-03-30 15:35:00
11:55 AM,57.2,26.4,31,30.21,10.0,ENE,5.8,-,N/A,,Clear,70,2013-03-30 15:55:00
12:15 PM,59.0,27.1,30,30.19,10.0,South,3.5,-,N/A,,Clear,170,2013-03-30 16:15:00
12:35 PM,59.4,26.6,29,30.19,10.0,ENE,3.5,-,N/A,,Clear,70,2013-03-30 16:35:00
12:55 PM,59.5,26.4,28,30.17,10.0,Calm,Calm,-,N/A,,Clear,0,2013-03-30 16:55:00
1:15 PM,60.6,27.0,28,30.17,10.0,NE,3.5,-,N/A,,Clear,50,2013-03-30 17:15:00
1:35 PM,62.6,27.7,27,30.17,10.0,South,5.8,-,N/A,,Clear,190,2013-03-30 17:35:00
1:55 PM,62.1,26.8,26,30.15,10.0,South,3.5,-,N/A,,Clear,170,2013-03-30 17:55:00
2:15 PM,61.7,26.6,26,30.14,10.0,Calm,Calm,-,N/A,,Clear,0,2013-03-30 18:15:00
2:35 PM,62.8,27.0,26,30.13,10.0,Calm,Calm,-,N/A,,Clear,0,2013-03-30 18:35:00
2:55 PM,63.7,27.9,26,30.13,10.0,South,8.1,-,N/A,,Clear,180,2013-03-30 18:55:00
3:15 PM,63.7,27.1,25,30.12,10.0,Calm,Calm,-,N/A,,Clear,0,2013-03-30 19:15:00
3:35 PM,64.4,27.3,25,30.11,10.0,SW,6.9,-,N/A,,Clear,230,2013-03-30 19:35:00
3:55 PM,64.0,27.0,25,30.11,10.0,Calm,Calm,-,N/A,,Clear,0,2013-03-30 19:55:00
4:15 PM,64.0,26.4,24,30.10,10.0,West,4.6,-,N/A,,Clear,270,2013-03-30 20:15:00
4:35 PM,63.5,26.6,25,30.09,10.0,NNW,3.5,-,N/A,,Clear,340,2013-03-30 20:35:00
4:55 PM,64.8,26.4,23,30.08,10.0,South,6.9,-,N/A,,Clear,170,2013-03-30 20:55:00
5:15 PM,64.2,26.4,24,30.08,10.0,SW,3.5,-,N/A,,Clear,220,2013-03-30 21:15:00
5:35 PM,63.7,26.2,24,30.08,10.0,Calm,Calm,-,N/A,,Clear,0,2013-03-30 21:35:00
5:55 PM,63.9,26.1,24,30.08,10.0,WSW,3.5,-,N/A,,Clear,250,2013-03-30 21:55:00
6:15 PM,63.5,26.1,24,30.08,10.0,Calm,Calm,-,N/A,,Clear,0,2013-03-30 22:15:00
6:35 PM,63.1,27.5,26,30.08,10.0,Calm,Calm,-,N/A,,Clear,0,2013-03-30 22:35:00
6:55 PM,61.9,28.4,28,30.08,10.0,Calm,Calm,-,N/A,,Clear,0,2013-03-30 22:55:00
7:15 PM,58.3,30.9,35,30.08,10.0,Calm,Calm,-,N/A,,Clear,0,2013-03-30 23:15:00
7:35 PM,54.7,32.9,44,30.09,10.0,Calm,Calm,-,N/A,,Clear,0,2013-03-30 23:35:00
7:55 PM,52.7,32.2,46,30.09,10.0,Calm,Calm,-,N/A,,Clear,0,2013-03-30 23:55:00
8:15 PM,50.9,32.0,48,30.09,10.0,Calm,Calm,-,N/A,,Clear,0,2013-03-31 00:15:00
8:35 PM,48.9,32.7,54,30.09,7.0,Calm,Calm,-,N/A,,Clear,0,2013-03-31 00:35:00
8:55 PM,48.0,33.1,56,30.09,10.0,Calm,Calm,-,N/A,,Clear,0,2013-03-31 00:55:00
9:15 PM,47.5,32.4,56,30.09,10.0,Calm,Calm,-,N/A,,Clear,0,2013-03-31 01:15:00
9:35 PM,46.0,34.3,64,30.09,10.0,Calm,Calm,-,N/A,,Clear,0,2013-03-31 01:35:00
9:55 PM,46.6,33.1,59,30.09,10.0,Calm,Calm,-,N/A,,Clear,0,2013-03-31 01:55:00
10:15 PM,45.5,33.6,63,30.09,10.0,Calm,Calm,-,N/A,,Clear,0,2013-03-31 02:15:00
10:35 PM,45.1,32.5,61,30.09,10.0,Calm,Calm,-,N/A,,Clear,0,2013-03-31 02:35:00
10:55 PM,44.8,33.3,64,30.09,10.0,Calm,Calm,-,N/A,,Clear,0,2013-03-31 02:55:00
11:35 PM,43.0,32.9,68,30.08,10.0,Calm,Calm,-,N/A,,Clear,0,2013-03-31 03:35:00
11:55 PM,42.1,33.8,72,30.08,10.0,Calm,Calm,-,N/A,,Clear,0,2013-03-31 03:55:00